When you browse on this site, cookies collect data to enhance your experience and personalize the content and advertising you see.
Visit our Privacy Policy to learn more. By continuing to use the site, you agree to this use of cookies and data.
  • In Spain
  • List of Countries
  • For 7 days
  • Water Temperature
  • Weather Map
  • Weather Widgets
  • user-avatar
    Login

    Hourly Weather Las Animas

    Today, 23 January, Thursday

    Time Temperature Precipitation Wind Pressure Humidity
    00:00 +16°C° 0 mm 1 mps 760 mmHg 81%
    01:00 +15°C° 0 mm 1 mps 760 mmHg 85%
    02:00 +14°C° 0 mm 1 mps 760 mmHg 88%
    03:00 +14°C° 0 mm 1 mps 761 mmHg 91%
    04:00 +13°C° 0 mm 1 mps 761 mmHg 93%
    05:00 +15°C° 0 mm 1 mps 761 mmHg 87%
    06:00 +16°C° 0 mm 1 mps 762 mmHg 81%
    07:00 +18°C° 0 mm 1 mps 762 mmHg 75%
    08:00 +21°C° 0 mm 1 mps 762 mmHg 64%
    09:00 +24°C° 0 mm 2 mps 763 mmHg 54%
    10:00 +26°C° 0 mm 2 mps 763 mmHg 43%
    11:00 +27°C° 0 mm 3 mps 763 mmHg 42%
    12:00 +28°C° 0 mm 3 mps 763 mmHg 40%
    13:00 +29°C° 0 mm 4 mps 763 mmHg 39%
    14:00 +28°C° 0 mm 4 mps 763 mmHg 39%
    15:00 +28°C° 0 mm 4 mps 763 mmHg 39%
    16:00 +28°C° 0 mm 5 mps 763 mmHg 39%
    17:00 +25°C° 0 mm 4 mps 763 mmHg 44%
    18:00 +22°C° 0 mm 3 mps 763 mmHg 50%
    19:00 +20°C° 0 mm 3 mps 763 mmHg 55%
    20:00 +18°C° 0 mm 2 mps 763 mmHg 57%
    21:00 +16°C° 0 mm 2 mps 763 mmHg 60%
    22:00 +15°C° 0 mm 1 mps 764 mmHg 62%
    23:00 +14°C° 0 mm 1 mps 763 mmHg 67%

    Tomorrow, 24 January, Friday

    Time Temperature Precipitation Wind Pressure Humidity
    00:00 +13°C° 0 mm 1 mps 763 mmHg 72%
    01:00 +12°C° 0 mm 1 mps 763 mmHg 77%
    02:00 +11°C° 0 mm 1 mps 763 mmHg 82%
    03:00 +10°C° 0 mm 1 mps 763 mmHg 86%
    04:00 +10°C° 0 mm 1 mps 764 mmHg 90%
    05:00 +12°C° 0 mm 1 mps 764 mmHg 83%
    06:00 +14°C° 0 mm 1 mps 763 mmHg 75%
    07:00 +15°C° 0 mm 1 mps 763 mmHg 68%
    08:00 +19°C° 0 mm 1 mps 763 mmHg 55%
    09:00 +21°C° 0 mm 2 mps 763 mmHg 43%
    10:00 +25°C° 0 mm 2 mps 763 mmHg 30%
    11:00 +26°C° 0 mm 2 mps 763 mmHg 30%
    12:00 +26°C° 0 mm 3 mps 763 mmHg 29%
    13:00 +27°C° 0 mm 3 mps 763 mmHg 29%
    14:00 +26°C° 0 mm 4 mps 763 mmHg 31%
    15:00 +25°C° 0 mm 4 mps 763 mmHg 34%
    16:00 +25°C° 0 mm 4 mps 763 mmHg 37%
    17:00 +21°C° 0 mm 3 mps 763 mmHg 46%
    18:00 +19°C° 0 mm 3 mps 763 mmHg 56%
    19:00 +17°C° 0 mm 2 mps 764 mmHg 66%
    20:00 +16°C° 0 mm 2 mps 764 mmHg 69%
    21:00 +15°C° 0 mm 1 mps 764 mmHg 72%
    22:00 +14°C° 0 mm 1 mps 764 mmHg 75%
    23:00 +13°C° 0 mm 1 mps 764 mmHg 75%

    Day after tomorrow, 25 January, Saturday

    Time Temperature Precipitation Wind Pressure Humidity
    00:00 +13°C° 0 mm 1 mps 764 mmHg 75%
    01:00 +12°C° 0 mm 0 mps 764 mmHg 75%
    02:00 +12°C° 0 mm 0 mps 764 mmHg 75%
    03:00 +12°C° 0 mm 0 mps 764 mmHg 76%
    04:00 +12°C° 0 mm 0 mps 764 mmHg 77%
    05:00 +13°C° 0 mm 0 mps 764 mmHg 71%
    06:00 +15°C° 0 mm 0 mps 764 mmHg 65%
    07:00 +17°C° 0 mm 0 mps 764 mmHg 59%
    08:00 +21°C° 0 mm 1 mps 764 mmHg 55%
    09:00 +24°C° 0 mm 1 mps 763 mmHg 50%
    10:00 +26°C° 0 mm 2 mps 763 mmHg 45%
    11:00 +27°C° 0 mm 2 mps 763 mmHg 45%
    12:00 +28°C° 0 mm 3 mps 763 mmHg 45%
    13:00 +28°C° 0 mm 3 mps 762 mmHg 45%
    14:00 +28°C° 0 mm 3 mps 762 mmHg 48%
    15:00 +27°C° 0 mm 4 mps 762 mmHg 51%
    16:00 +26°C° 0 mm 4 mps 762 mmHg 54%
    17:00 +24°C° 0 mm 3 mps 762 mmHg 63%
    18:00 +21°C° 0 mm 3 mps 763 mmHg 72%
    19:00 +19°C° 0 mm 3 mps 763 mmHg 81%
    20:00 +18°C° 0 mm 2 mps 763 mmHg 85%
    21:00 +17°C° 0 mm 2 mps 764 mmHg 88%
    22:00 +16°C° 0 mm 1 mps 764 mmHg 92%
    23:00 +16°C° 0 mm 1 mps 764 mmHg 93%

    26 January, Sunday

    Time Temperature Precipitation Wind Pressure Humidity
    00:00 +15°C° 0 mm 1 mps 763 mmHg 95%
    01:00 +15°C° 0 mm 1 mps 763 mmHg 96%
    02:00 +15°C° 0 mm 1 mps 763 mmHg 96%
    03:00 +15°C° 0 mm 1 mps 763 mmHg 97%
    04:00 +15°C° 0 mm 1 mps 763 mmHg 97%
    05:00 +16°C° 0 mm 1 mps 763 mmHg 92%
    06:00 +18°C° 0 mm 1 mps 763 mmHg 86%
    07:00 +18°C° 0 mm 1 mps 763 mmHg 80%
    08:00 +21°C° 0 mm 1 mps 763 mmHg 70%
    09:00 +23°C° 0 mm 1 mps 763 mmHg 61%
    10:00 +25°C° 0 mm 2 mps 763 mmHg 51%
    11:00 +26°C° 0 mm 2 mps 763 mmHg 50%
    12:00 +27°C° 0 mm 2 mps 763 mmHg 48%
    13:00 +28°C° 0 mm 3 mps 763 mmHg 47%
    14:00 +27°C° 0 mm 3 mps 763 mmHg 48%
    15:00 +27°C° 0 mm 3 mps 762 mmHg 49%
    16:00 +27°C° 0 mm 3 mps 762 mmHg 51%
    17:00 +25°C° 0 mm 3 mps 762 mmHg 58%
    18:00 +22°C° 0 mm 3 mps 763 mmHg 65%
    19:00 +20°C° 0 mm 2 mps 763 mmHg 72%
    20:00 +19°C° 0 mm 2 mps 763 mmHg 76%
    21:00 +18°C° 0 mm 2 mps 764 mmHg 80%
    22:00 +18°C° 0 mm 1 mps 764 mmHg 84%
    23:00 +16°C° 0 mm 1 mps 764 mmHg 86%

    27 January, Monday

    Time Temperature Precipitation Wind Pressure Humidity
    00:00 +15°C° 0 mm 1 mps 763 mmHg 88%
    01:00 +15°C° 0 mm 1 mps 763 mmHg 90%
    02:00 +14°C° 0 mm 1 mps 763 mmHg 91%
    03:00 +14°C° 0 mm 1 mps 763 mmHg 92%
    04:00 +13°C° 0 mm 1 mps 763 mmHg 93%
    05:00 +14°C° 0 mm 1 mps 762 mmHg 85%
    06:00 +15°C° 0 mm 1 mps 762 mmHg 77%
    07:00 +18°C° 0 mm 1 mps 762 mmHg 69%
    08:00 +21°C° 0 mm 1 mps 762 mmHg 57%
    09:00 +24°C° 0 mm 1 mps 762 mmHg 46%
    10:00 +27°C° 0 mm 1 mps 761 mmHg 34%
    11:00 +28°C° 0 mm 2 mps 761 mmHg 33%
    12:00 +28°C° 0 mm 2 mps 761 mmHg 33%
    13:00 +29°C° 0 mm 3 mps 761 mmHg 32%
    14:00 +29°C° 0 mm 3 mps 760 mmHg 34%
    15:00 +28°C° 0 mm 3 mps 760 mmHg 35%
    16:00 +28°C° 0 mm 3 mps 760 mmHg 37%
    17:00 +25°C° 0 mm 3 mps 760 mmHg 47%
    18:00 +22°C° 0 mm 3 mps 761 mmHg 57%
    19:00 +19°C° 0 mm 2 mps 761 mmHg 68%
    20:00 +18°C° 0 mm 2 mps 761 mmHg 76%
    21:00 +16°C° 0 mm 1 mps 761 mmHg 83%
    22:00 +15°C° 0 mm 1 mps 761 mmHg 91%
    23:00 +15°C° 0 mm 1 mps 761 mmHg 93%

    28 January, Tuesday

    Time Temperature Precipitation Wind Pressure Humidity
    00:00 +15°C° 0 mm 1 mps 761 mmHg 95%
    01:00 +14°C° 0 mm 1 mps 760 mmHg 97%
    02:00 +15°C° 0 mm 1 mps 760 mmHg 96%
    03:00 +15°C° 0 mm 1 mps 760 mmHg 96%
    04:00 +16°C° 0 mm 1 mps 760 mmHg 96%
    05:00 +16°C° 0.4 mm 1 mps 760 mmHg 97%
    06:00 +16°C° 0.4 mm 1 mps 760 mmHg 97%
    07:00 +17°C° 0.4 mm 2 mps 760 mmHg 98%
    08:00 +17°C° 0.7 mm 2 mps 760 mmHg 98%
    09:00 +17°C° 0.7 mm 2 mps 760 mmHg 97%
    10:00 +17°C° 0.7 mm 2 mps 761 mmHg 97%
    11:00 +19°C° 0.1 mm 3 mps 761 mmHg 83%
    12:00 +21°C° 0.1 mm 3 mps 761 mmHg 69%
    13:00 +23°C° 0.1 mm 4 mps 760 mmHg 55%
    14:00 +22°C° 0 mm 4 mps 760 mmHg 55%
    15:00 +21°C° 0 mm 4 mps 760 mmHg 54%
    16:00 +21°C° 0 mm 4 mps 760 mmHg 54%
    17:00 +19°C° 0 mm 4 mps 760 mmHg 60%
    18:00 +18°C° 0 mm 3 mps 761 mmHg 67%
    19:00 +16°C° 0 mm 3 mps 761 mmHg 73%
    20:00 +14°C° 0 mm 3 mps 762 mmHg 80%
    21:00 +13°C° 0 mm 2 mps 762 mmHg 86%
    22:00 +10°C° 0 mm 2 mps 763 mmHg 93%
    23:00 +10°C° 0 mm 2 mps 763 mmHg 92%
    Show more